Regional Weather Roundup
Issued by NWS

Home | Current Version | Previous Version | Graphics & Text | Print | Product List | Glossary On
Versions: 1 2 3 4 5 6 7 8 9 10 11 12 13 14 15 16 17 18 19 20 21 22 23 24 25 26 27 28 29 30 31 32 33 34 35 36 37 38 39 40 41 42 43 44 45 46 47 48 49 50
259
ASUS43 KOAX 240210
RWRNE

WEATHER ROUNDUP FOR NEBRASKA
NATIONAL WEATHER SERVICE OMAHA NE
900 PM CDT THU MAR 23 2017

NOTES: SATELLITE DATA IS BEING USED TO AUGMENT CLOUD COVER ABOVE
       12000 FEET.
       "FAIR" INDICATES FEW OR NO CLOUDS BELOW 12,000 FEET WITH NO
       SIGNIFICANT WEATHER AND/OR OBSTRUCTIONS TO VISIBILITY.

  * THESE STATIONS DO NOT REPORT WEATHER SUCH AS RAIN...SNOW OR FOG.

NEZ001>004-019>022-054>056-240300-
NEBRASKA PANHANDLE

CITY           SKY/WX    TMP DP  RH WIND       PRES   REMARKS
SCOTTSBLUFF    LGT RAIN  49  42  77 N20G26    29.77R
ALLIANCE       CLOUDY    48  41  76 N25G35    29.70R
CHADRON        CLOUDY    45  42  89 N17G31    29.82R
KIMBALL        LGT RAIN  52  47  84 N28G33    29.69R
SIDNEY         LGT RAIN  55  42  61 N17G32    29.66R
$$

NEZ057>060-069>072-079>082-240300-
SOUTHWEST NEBRASKA

CITY           SKY/WX    TMP DP  RH WIND       PRES   REMARKS
NORTH PLATTE   CLOUDY    61  57  87 NE16      29.51S
IMPERIAL       CLOUDY    71  30  21 N6        29.49R
LEXINGTON      CLOUDY    75  49  39 S16G24    29.49R
MCCOOK         CLOUDY    73  47  39 S30G43    29.48R HAZE
OGALLALA       CLOUDY    67  48  50 N7        29.52S
$$

NEZ005>010-023>029-035>040-094-240300-
NORTH CENTRAL NEBRASKA

CITY           SKY/WX    TMP DP  RH WIND       PRES   REMARKS
VALENTINE      CLOUDY    56  39  53 N20G32    29.67S
AINSWORTH      CLOUDY    53  50  89 NE9       29.62F
BROKEN BOW     TSTM      52  31  44 S5        29.62R
O`NEILL        CLOUDY    55  55 100 NE8       29.63F THUNDER FOG
ORD            TSTM      59  52  77 N9        29.55S
THEDFORD       CLOUDY    61  50  66 N16G24    29.57R
$$

NEZ041-046>049-061>064-073>077-083>087-240300-
SOUTH CENTRAL NEBRASKA

CITY           SKY/WX    TMP DP  RH WIND       PRES   REMARKS
GRAND ISLAND   CLOUDY    68  58  70 S18G28    29.54F
AURORA         CLOUDY    68  56  64 S22G29    29.53F
HASTINGS       CLOUDY    71  55  56 S17G26    29.55F
HEBRON         CLOUDY    71  54  54 S16G23    29.64R
HOLDREGE       CLOUDY    74  48  40 S37G46    29.53R
KEARNEY *      MOCLDY    72  52  49 S31G37    29.50F
YORK           CLOUDY    68  55  64 S20       29.56F
$$

NEZ011>018-030>034-042>045-240300-
NORTHEAST NEBRASKA

CITY           SKY/WX    TMP DP  RH WIND       PRES   REMARKS
NORFOLK        CLOUDY    60  51  72 SE15      29.60S
ALBION         CLOUDY    64  54  70 E12       29.57F
BLAIR          CLOUDY    70  52  52 SE20G25   29.63F
FREMONT        CLOUDY    68  52  56 SE10      29.62S
TEKAMAH        CLOUDY    63  50  62 SE12      29.63F
WAYNE          MOCLDY    57  47  68 SE12      29.64S
$$

NEZ050>053-065>068-078-088>093-240300-
SOUTHEAST NEBRASKA

CITY           SKY/WX    TMP DP  RH WIND       PRES   REMARKS
LINCOLN        CLOUDY    71  52  50 S23       29.62F
OMAHA EPPLEY   CLOUDY    72  51  47 SE20      29.64S
BEATRICE       CLOUDY    71  52  50 S12       29.67R
FALLS CITY     CLOUDY    72  47  40 S20G28    29.70R
NEBRASKA CITY  CLOUDY    71  43  36 S18       29.69R
PLATTSMOUTH    MOCLDY    73  45  37 S15G22    29.69R
$$

NEZ044-045-051>053-067-240300-
OMAHA AREA

CITY           SKY/WX    TMP DP  RH WIND       PRES   REMARKS
OMAHA EPPLEY   CLOUDY    72  51  47 SE20      29.64S
BLAIR          CLOUDY    70  52  52 SE20G25   29.63F
FREMONT        CLOUDY    68  52  56 SE10      29.62S
MILLARD        MOCLDY    73  53  49 SE13      29.64F
OFFUTT AFB     MOCLDY    72  51  46 SE16      29.66R
PLATTSMOUTH    MOCLDY    73  45  37 S15G22    29.69R
WAHOO          FAIR      68  51  54 SE15      29.62S
$$




USA.gov is the U.S. government's official web portal to all federal, state and local government web resources and services.